Content
SEND FEEDBACK

Daily
Averages
Monthly
Summary
French Polynesia

PAPEETE, FRENCH POLYNESIA


Home > Oceania > French Polynesia
Elevation: 7 feet     Latitude: 17 33S     Longitude: 149 36W

WEATHER
 
SELECT A DAY
Number of Records: 214,224;   Date Range: 6/30/96 - 10/21/14
 
SHARE

PRINT THIS DATA

[ ← Previous Day ]
WEATHER ALMANAC - MAY 1, 2013
[ Next Day → ]
[ °C ]   °F
Weather ElementAverageHighLow
Temperature81.4 °F87.8 °F (2:30 pm)77 °F (2:30 am)
Dewpoint73.1 °F75.2 °F (7:30 am)71 °F (5:00 am)
Humidity75.1 %89 % (2:30 am)57 % (2:00 pm)
Barometer29.84 in29.89 in (8:30 am)29.80 in (2:30 am)
Wind Speed3.1 mph8.9 mph (5:00 pm)
Weather ElementAverage
Visibility7.6 mi
Wind DirectionESE (97.5 °)

Weather ElementTotal
Precipitation---
Cooling Degree Days17.4 (Base 65)
Growing Degree Days32.4 (Base 50)
Averaged from 53 records on May 1, 2013
WEATHER CONDITIONS BREAKOUT
WIND DIRECTION BREAKOUT
WEATHER BY HOUR - MAY 1, 2013
[ °C ]   °F
Local TimeTemperatureDewpointHumidityBarometerVisibilityWind DirectionWind SpeedGust SpeedPrecipitationEventsConditions
12:30 AM78.8 °F71.6 °F78 %29.86 in6.2 miEast (80°)4.6 mphMostly Cloudy
1:00 AM78.8 °F71.6 °F78 %29.83 in6.2 miEast (100°)3.5 mphMostly Cloudy
2:00 AM78.0 °F72.0 °F78 %29.84 in12.0 miESE (110°)2.3 mphPartly Cloudy
2:00 AM78.8 °F71.6 °F78 %29.83 in6.2 miVariable2.3 mphMostly Cloudy
2:30 AM77.0 °F73.4 °F89 %29.80 in6.2 miSouth (170°)3.5 mphMostly Cloudy
3:00 AM77.0 °F71.6 °F83 %29.80 in6.2 miSouth (190°)4.6 mphMostly Cloudy
3:30 AM78.8 °F71.6 °F78 %29.80 in6.2 miSouth (170°)4.6 mph
4:00 AM78.8 °F71.6 °F78 %29.83 in6.2 miSouth (180°)3.5 mph
4:30 AM77.0 °F71.6 °F83 %29.80 in6.2 miESE (120°)2.3 mph
5:00 AM78.0 °F71.0 °F74 %29.83 in37.0 miCalmClear
5:00 AM77.0 °F71.6 °F83 %29.83 in6.2 miCalm
5:30 AM77.0 °F71.6 °F83 %29.83 in6.2 miEast (90°)2.3 mph
6:00 AM77.0 °F71.6 °F83 %29.83 in6.2 miEast (80°)3.5 mphMostly Cloudy
6:30 AM77.0 °F71.6 °F83 %29.86 in6.2 miVariable1.2 mphMostly Cloudy
7:00 AM77.0 °F73.4 °F89 %29.86 in6.2 miESE (120°)3.5 mphMostly Cloudy
7:30 AM80.6 °F75.2 °F84 %29.86 in6.2 miVariable2.3 mphMostly Cloudy
8:00 AM82.0 °F73.0 °F68 %29.88 in16.0 miCalmPartly Cloudy
8:00 AM82.4 °F73.4 °F74 %29.86 in6.2 miCalmMostly Cloudy
8:30 AM84.2 °F73.4 °F70 %29.89 in6.2 miVariable3.5 mphMostly Cloudy
9:00 AM84.2 °F73.4 °F70 %29.89 in6.2 miVariable3.5 mphMostly Cloudy
9:30 AM84.2 °F75.2 °F74 %29.89 in6.2 miVariable2.3 mphMostly Cloudy
10:00 AM84.2 °F75.2 °F74 %29.89 in6.2 miWSW (250°)3.5 mphMostly Cloudy
10:30 AM84.2 °F75.2 °F74 %29.86 in6.2 miVariable3.5 mphMostly Cloudy
11:00 AM85.0 °F74.0 °F62 %29.87 in16.0 miWest (260°)2.3 mphScattered Clouds
11:00 AM84.2 °F73.4 °F70 %29.86 in6.2 miWest (260°)2.3 mphMostly Cloudy
11:30 AM84.2 °F75.2 °F74 %29.86 in6.2 miVariable2.3 mphMostly Cloudy
12:04 PM84.2 °F73.4 °F70 %29.83 in6.2 miVariable2.3 mphMostly Cloudy
12:30 PM84.2 °F75.2 °F74 %29.83 in6.2 miVariable3.5 mphMostly Cloudy
1:00 PM84.2 °F75.2 °F74 %29.83 in6.2 miVariable2.3 mphMostly Cloudy
1:30 PM86.0 °F75.2 °F70 %29.80 in6.2 miVariable2.3 mphMostly Cloudy
2:00 PM87.0 °F74.0 °F57 %29.82 in16.0 miWSW (240°)6.7 mphScattered Clouds
2:00 PM86.0 °F73.4 °F66 %29.80 in6.2 miWSW (240°)3.5 mphMostly Cloudy
2:30 PM87.8 °F73.4 °F62 %29.80 in6.2 miVariable3.5 mphMostly Cloudy
3:00 PM87.8 °F73.4 °F62 %29.80 in6.2 miNorth (360°)3.5 mphMostly Cloudy
3:30 PM86.0 °F73.4 °F66 %29.80 in6.2 miNorth (10°)5.8 mphScattered Clouds
4:00 PM86.0 °F73.4 °F66 %29.80 in6.2 miNNW (330°)5.8 mphMostly Cloudy
4:30 PM84.2 °F73.4 °F70 %29.83 in6.2 miNW (320°)4.6 mphMostly Cloudy
5:00 PM83.0 °F73.0 °F64 %29.84 in11.0 miNorth (10°)8.9 mphScattered Clouds
5:00 PM84.2 °F73.4 °F70 %29.83 in6.2 miNorth (10°)4.6 mphMostly Cloudy
5:30 PM82.4 °F71.6 °F70 %29.83 in6.2 miCalmMostly Cloudy
6:00 PM82.4 °F71.6 °F70 %29.83 in6.2 miCalmMostly Cloudy
6:30 PM82.4 °F73.4 °F74 %29.86 in6.2 miSE (140°)3.5 mphMostly Cloudy
7:00 PM80.6 °F73.4 °F79 %29.86 in6.2 miVariable2.3 mphScattered Clouds
7:30 PM80.6 °F73.4 °F79 %29.86 in6.2 miCalmScattered Clouds
8:00 PM80.0 °F73.0 °F73 %29.88 in12.0 miSouth (180°)6.7 mphScattered Clouds
8:00 PM80.6 °F73.4 °F79 %29.86 in6.2 miSouth (180°)3.5 mphScattered Clouds
8:30 PM78.8 °F73.4 °F83 %29.89 in6.2 miVariable2.3 mphScattered Clouds
9:00 PM78.8 °F73.4 °F83 %29.89 in6.2 miEast (90°)3.5 mphScattered Clouds
9:30 PM78.8 °F73.4 °F83 %29.89 in6.2 miCalmScattered Clouds
10:00 PM78.8 °F73.4 °F83 %29.89 in6.2 miSouth (190°)4.6 mphScattered Clouds
10:30 PM78.8 °F71.6 °F78 %29.86 in6.2 miSouth (170°)5.8 mphScattered Clouds
11:00 PM78.8 °F71.6 °F78 %29.86 in6.2 miSSE (150°)3.5 mphScattered Clouds
11:30 PM77.0 °F71.6 °F83 %29.86 in6.2 miSouth (170°)3.5 mphScattered Clouds
Hourly data recorded from NTAA, located miles away from Papeete, French Polynesia







STORIES FROM OUR PARTNERS